• In Hungary
  • List of Countries
  • For 7 days
  • Water Temperature
  • Satellite Maps
  • Weather Map
  • News
  • Weather Widgets
  • user-avatar
    Login

    Hourly Weather Overijse

    Today, 19 September, Wednesday

    Time Temperature Precipitation Wind Pressure Humidity
    00:00 +16°C° 0 mm 2 mps 754 mmHg 88%
    01:00 +16°C° 0 mm 2 mps 754 mmHg 88%
    02:00 +16°C° 0 mm 2 mps 754 mmHg 88%
    03:00 +16°C° 0 mm 3 mps 754 mmHg 89%
    04:00 +16°C° 0 mm 3 mps 754 mmHg 89%
    05:00 +16°C° 0 mm 3 mps 754 mmHg 89%
    06:00 +17°C° 0 mm 4 mps 754 mmHg 87%
    07:00 +17°C° 0 mm 5 mps 754 mmHg 81%
    08:00 +20°C° 0 mm 5 mps 754 mmHg 74%
    09:00 +22°C° 0 mm 6 mps 754 mmHg 67%
    10:00 +23°C° 0 mm 6 mps 754 mmHg 63%
    11:00 +24°C° 0 mm 6 mps 754 mmHg 58%
    12:00 +26°C° 0 mm 7 mps 754 mmHg 54%
    13:00 +26°C° 0 mm 7 mps 754 mmHg 54%
    14:00 +26°C° 0 mm 6 mps 754 mmHg 54%
    15:00 +26°C° 0 mm 6 mps 753 mmHg 54%
    16:00 +23°C° 0 mm 5 mps 754 mmHg 59%
    17:00 +22°C° 0 mm 4 mps 754 mmHg 65%
    18:00 +20°C° 0 mm 3 mps 754 mmHg 70%
    19:00 +20°C° 0 mm 3 mps 754 mmHg 73%
    20:00 +19°C° 0 mm 3 mps 754 mmHg 76%
    21:00 +18°C° 0 mm 3 mps 755 mmHg 79%
    22:00 +18°C° 0 mm 3 mps 755 mmHg 81%
    23:00 +17°C° 0 mm 3 mps 755 mmHg 84%

    Tomorrow, 20 September, Thursday

    Time Temperature Precipitation Wind Pressure Humidity
    00:00 +17°C° 0 mm 3 mps 755 mmHg 87%
    01:00 +16°C° 0 mm 3 mps 755 mmHg 88%
    02:00 +16°C° 0 mm 3 mps 755 mmHg 90%
    03:00 +16°C° 0 mm 3 mps 755 mmHg 92%
    04:00 +14°C° 0 mm 3 mps 755 mmHg 92%
    05:00 +14°C° 0 mm 3 mps 754 mmHg 92%
    06:00 +14°C° 0 mm 4 mps 754 mmHg 92%
    07:00 +17°C° 0 mm 4 mps 754 mmHg 85%
    08:00 +19°C° 0 mm 5 mps 755 mmHg 78%
    09:00 +21°C° 0 mm 6 mps 755 mmHg 70%
    10:00 +22°C° 0 mm 6 mps 754 mmHg 66%
    11:00 +23°C° 0 mm 6 mps 754 mmHg 62%
    12:00 +24°C° 0 mm 6 mps 753 mmHg 57%
    13:00 +24°C° 0 mm 6 mps 753 mmHg 56%
    14:00 +24°C° 0 mm 6 mps 753 mmHg 55%
    15:00 +26°C° 0 mm 5 mps 752 mmHg 54%
    16:00 +23°C° 0 mm 5 mps 751 mmHg 58%
    17:00 +22°C° 0 mm 4 mps 751 mmHg 63%
    18:00 +21°C° 0 mm 3 mps 750 mmHg 67%
    19:00 +20°C° 0 mm 4 mps 750 mmHg 66%
    20:00 +20°C° 0 mm 4 mps 749 mmHg 64%
    21:00 +20°C° 0 mm 5 mps 749 mmHg 62%
    22:00 +20°C° 0 mm 5 mps 748 mmHg 60%
    23:00 +21°C° 0 mm 6 mps 748 mmHg 57%

    Day after tomorrow, 21 September, Friday

    Time Temperature Precipitation Wind Pressure Humidity
    00:00 +21°C° 0 mm 6 mps 747 mmHg 55%
    01:00 +20°C° 0 mm 7 mps 747 mmHg 57%
    02:00 +20°C° 0 mm 7 mps 746 mmHg 58%
    03:00 +20°C° 0 mm 8 mps 745 mmHg 60%
    04:00 +18°C° 1 mm 8 mps 746 mmHg 66%
    05:00 +17°C° 1 mm 8 mps 746 mmHg 72%
    06:00 +16°C° 1 mm 9 mps 746 mmHg 78%
    07:00 +15°C° 1.1 mm 8 mps 747 mmHg 75%
    08:00 +14°C° 1.1 mm 7 mps 748 mmHg 71%
    09:00 +12°C° 1.1 mm 7 mps 749 mmHg 68%
    10:00 +14°C° 0 mm 7 mps 750 mmHg 61%
    11:00 +15°C° 0 mm 7 mps 751 mmHg 54%
    12:00 +16°C° 0 mm 7 mps 751 mmHg 47%
    13:00 +16°C° 0 mm 7 mps 751 mmHg 47%
    14:00 +16°C° 0 mm 8 mps 752 mmHg 47%
    15:00 +16°C° 0 mm 8 mps 752 mmHg 46%
    16:00 +15°C° 0 mm 7 mps 752 mmHg 50%
    17:00 +14°C° 0 mm 6 mps 752 mmHg 53%
    18:00 +13°C° 0 mm 5 mps 753 mmHg 56%
    19:00 +13°C° 0 mm 5 mps 753 mmHg 59%
    20:00 +12°C° 0 mm 5 mps 754 mmHg 61%
    21:00 +12°C° 0 mm 5 mps 754 mmHg 64%
    22:00 +10°C° 0 mm 5 mps 755 mmHg 66%
    23:00 +10°C° 0 mm 5 mps 755 mmHg 68%

    22 September, Saturday

    Time Temperature Precipitation Wind Pressure Humidity
    00:00 +10°C° 0 mm 5 mps 755 mmHg 70%
    01:00 +10°C° 0 mm 4 mps 755 mmHg 72%
    02:00 +10°C° 0 mm 4 mps 755 mmHg 74%
    03:00 +10°C° 0 mm 4 mps 756 mmHg 76%
    04:00 +8°C° 0 mm 4 mps 756 mmHg 78%
    05:00 +8°C° 0 mm 4 mps 756 mmHg 80%
    06:00 +8°C° 0 mm 4 mps 756 mmHg 81%
    07:00 +10°C° 0 mm 4 mps 757 mmHg 74%
    08:00 +12°C° 0 mm 5 mps 757 mmHg 67%
    09:00 +14°C° 0 mm 5 mps 757 mmHg 60%
    10:00 +15°C° 0 mm 5 mps 757 mmHg 57%
    11:00 +15°C° 0 mm 5 mps 757 mmHg 54%
    12:00 +16°C° 0 mm 6 mps 757 mmHg 51%
    13:00 +16°C° 0 mm 5 mps 757 mmHg 50%
    14:00 +16°C° 0 mm 5 mps 757 mmHg 49%
    15:00 +16°C° 0 mm 5 mps 757 mmHg 48%
    16:00 +16°C° 0 mm 3 mps 757 mmHg 53%
    17:00 +14°C° 0 mm 2 mps 757 mmHg 58%
    18:00 +13°C° 0 mm 1 mps 757 mmHg 63%
    19:00 +13°C° 0 mm 1 mps 757 mmHg 63%
    20:00 +12°C° 0 mm 1 mps 757 mmHg 64%
    21:00 +12°C° 0 mm 1 mps 757 mmHg 64%
    22:00 +12°C° 0.1 mm 1 mps 756 mmHg 66%
    23:00 +12°C° 0.1 mm 2 mps 755 mmHg 69%

    23 September, Sunday

    Time Temperature Precipitation Wind Pressure Humidity
    00:00 +12°C° 0.1 mm 2 mps 754 mmHg 71%
    01:00 +11°C° 0.7 mm 3 mps 753 mmHg 76%
    02:00 +10°C° 0.7 mm 4 mps 752 mmHg 81%
    03:00 +10°C° 0.7 mm 4 mps 751 mmHg 86%
    04:00 +9°C° 0.2 mm 5 mps 750 mmHg 84%
    05:00 +10°C° 0.2 mm 7 mps 748 mmHg 83%
    06:00 +10°C° 0.2 mm 8 mps 746 mmHg 81%
    07:00 +11°C° 0.4 mm 9 mps 744 mmHg 79%
    08:00 +12°C° 0.4 mm 9 mps 742 mmHg 77%
    09:00 +14°C° 0.4 mm 10 mps 740 mmHg 75%
    10:00 +16°C° 0.9 mm 11 mps 739 mmHg 77%
    11:00 +17°C° 0.9 mm 11 mps 737 mmHg 79%
    12:00 +18°C° 0.9 mm 12 mps 736 mmHg 81%
    13:00 +18°C° 0.7 mm 11 mps 735 mmHg 75%
    14:00 +18°C° 0.7 mm 11 mps 734 mmHg 68%
    15:00 +18°C° 0.7 mm 11 mps 733 mmHg 61%
    16:00 +16°C° 0.1 mm 11 mps 732 mmHg 61%
    17:00 +14°C° 0.1 mm 12 mps 732 mmHg 61%
    18:00 +13°C° 0.1 mm 12 mps 731 mmHg 61%
    19:00 +12°C° 0.4 mm 11 mps 731 mmHg 67%
    20:00 +12°C° 0.4 mm 11 mps 731 mmHg 74%
    21:00 +11°C° 0.4 mm 10 mps 731 mmHg 81%
    22:00 +11°C° 1.1 mm 11 mps 732 mmHg 82%
    23:00 +11°C° 1.1 mm 11 mps 734 mmHg 84%

    24 September, Monday

    Time Temperature Precipitation Wind Pressure Humidity
    00:00 +10°C° 1.1 mm 12 mps 735 mmHg 86%
    01:00 +11°C° 0.4 mm 11 mps 738 mmHg 83%
    02:00 +9°C° 0.4 mm 11 mps 741 mmHg 79%
    03:00 +9°C° 0.4 mm 10 mps 743 mmHg 76%
    04:00 +9°C° 0.3 mm 10 mps 746 mmHg 76%
    05:00 +8°C° 0.3 mm 9 mps 748 mmHg 76%
    06:00 +8°C° 0.3 mm 9 mps 750 mmHg 76%
    07:00 +10°C° 0.2 mm 9 mps 751 mmHg 72%
    08:00 +11°C° 0.2 mm 9 mps 752 mmHg 68%
    09:00 +11°C° 0.2 mm 10 mps 754 mmHg 64%
    10:00 +12°C° 0.3 mm 10 mps 755 mmHg 63%
    11:00 +12°C° 0.3 mm 10 mps 756 mmHg 61%
    12:00 +12°C° 0.3 mm 10 mps 757 mmHg 60%
    13:00 +11°C° 0.4 mm 9 mps 757 mmHg 62%
    14:00 +11°C° 0.4 mm 9 mps 758 mmHg 64%
    15:00 +11°C° 0.4 mm 8 mps 759 mmHg 66%
    16:00 +10°C° 0.2 mm 7 mps 760 mmHg 69%
    17:00 +9°C° 0.2 mm 6 mps 760 mmHg 71%
    18:00 +8°C° 0.2 mm 5 mps 761 mmHg 74%
    19:00 +8°C° 0.1 mm 4 mps 762 mmHg 75%
    20:00 +8°C° 0.1 mm 4 mps 763 mmHg 76%
    21:00 +8°C° 0.1 mm 3 mps 763 mmHg 78%
    22:00 +8°C° 0.1 mm 3 mps 763 mmHg 79%
    23:00 +8°C° 0.1 mm 3 mps 764 mmHg 81%
    Show more